Regional Weather Roundup
Issued by NWS

Home | Current Version | Previous Version | Text Only | Print | Product List | Glossary On
Versions: 1 2 3 4 5 6 7 8 9 10 11 12 13 14 15 16 17 18 19 20 21 22 23 24 25 26 27 28 29 30 31 32 33 34 35 36 37 38 39 40 41 42 43 44 45 46 47 48 49 50
873
ASUS42 KTBW 232115
RWRFL
FLORIDA REGIONAL WEATHER ROUNDUP
NATIONAL WEATHER SERVICE TAMPA BAY RUSKIN FL
400 PM EST MON JAN 23 2017

NOTE: "FAIR" INDICATES FEW OR NO CLOUDS BELOW 12,000 FEET WITH NO
SIGNIFICANT WEATHER AND/OR OBSTRUCTIONS TO VISIBILITY.

FLZ001>010-012>015-112-114-115-232200-
PANHANDLE FLORIDA

CITY           SKY/WX    TMP DP  RH WIND       PRES   REMARKS
PENSACOLA      SUNNY     71  46  40 NW14G22   29.68S
PENSACOLA NAS  SUNNY     70  48  45 W12G23    29.68R
MILTON NAS     SUNNY     68  47  46 NW16      29.68
CRESTVIEW      SUNNY     70  45  40 NW16G24   29.66R
DUKE FIELD     MOSUNNY   70  46  43 NW14G25   29.64R
VALPARAISO     MOSUNNY   70  46  42 NW20      29.65R
MARY ESTHER    SUNNY     69  33  25 NW16G24   29.66R
PANAMA CITY    FAIR      69  48  47 NW20      29.62R
TYNDALL AFB    SUNNY     67  53  59 W21       29.63S
APALACHICOLA   SUNNY     66  52  60 NW20G30   29.61S

STATION/POSITION SKY/WX   TEMP    WIND        PRES    WAVE   SWELL
                          AIR SEA DIR/SP/G            HT/PER HT/PER
                          (F)     (DEG/KT/KT) (MB)    (FT/S) (FT/S)
30.1N   87.6W              64 65  280/ 21/ 23 1005.7R   5/ 6   2/ 8
28.8N   86.0W              67 74              1005.0R  14/11   8/11
PANAMA CITY BEAC           66 65  290/ 19/ 22 1003.6S
TOWER C                    62     310/ 31/ 34 1003.3R
28.5N   84.5W              67 71  300/ 25/ 31 1002.8R  16/12  10/12

$$
FLZ011-016>038-118-127-128-134-139-239-232200-
NORTH FLORIDA

CITY           SKY/WX    TMP DP  RH WIND       PRES   REMARKS
MARIANNA       SUNNY     69  47  45 NW21G28   29.59R
TALLAHASSEE    MOSUNNY   66  50  56 NW15G23   29.58R
PERRY          CLOUDY    64  50  59 NW16G22   29.58R
CROSS CITY     CLOUDY    64  50  59 W17G23    29.57R
LAKE CITY      CLOUDY    61  52  72 W21G29    29.52R
GAINESVILLE    CLOUDY    66  50  56 W16G29    29.51R
WILLISTON      PTSUNNY   68  52  56 W20G30    29.54R
PALATKA        CLOUDY    66  52  59 W20G28    29.50R
MAYPORT NAS    PTSUNNY   65  51  60 W16G31    29.44R
JACKSONVILLE   PTSUNNY   63  52  67 W21G35    29.45R
JAX NAS        PTSUNNY   65  51  60 W17G29    29.48R
FERNANDINA BEA PTSUNNY   68  54  60 W24       29.43R
ST AUGUSTINE   CLOUDY    66  52  60 W13G24    29.47R
PALM COAST     CLOUDY    64  52  63 W13G26    29.49R

STATION/POSITION SKY/WX   TEMP    WIND        PRES    WAVE   SWELL
                          AIR SEA DIR/SP/G            HT/PER HT/PER
                          (F)     (DEG/KT/KT) (MB)    (FT/S) (FT/S)
SHELL POINT      NOT AVBL
KEATON BEACH               63     300/ 20/ 24 1001.5R
CEDAR KEY                  64     290/ 18/ 26 1001.1R
FERNANDINA                 64 66  270/ 20/ 27  997.4R
30.7N   81.3W                 62                N/A     4/ 4   2/14
MAYPORT                    64 65  290/ 22/ 27  997.1R
31.4N   80.9W              60 60  270/ 19/ 25  993.4    5/ 5   2/14
ST AUGUSTINE               65 64  270/ 12/ 15  998.5R

$$
FLZ040-043>046-052-053-057-058-063-144-232200-
INTERIOR CENTRAL FLORIDA

CITY           SKY/WX    TMP DP  RH WIND       PRES   REMARKS
OCALA          PTSUNNY   64  50  59 W13G23    29.54R
THE VILLAGES     N/A     64  61  88 MISG      29.45R
LEESBURG       CLOUDY    66  53  63 W22G28    29.55R
SANFORD        CLOUDY    68  51  54 W20G31    29.51R
ORLANDO EXEC   PTSUNNY   69  50  50 W20G33    29.52R
ORLANDO INTL   PTSUNNY   69  50  50 W21G30    29.54R
KISSIMMEE      PTSUNNY   70  50  49 W25G31    29.55R
WINTER HAVEN   PTSUNNY   70  51  51 W21G33    29.57R
LAKELAND       PTSUNNY   70  55  60 MISG      29.59R
BARTOW         PTSUNNY   70  54  56 W21G31    29.57R
OKEECHOBEE     PTSUNNY   72  55  56 W15G31    29.57R

$$
FLZ041-047-054-059-064-141-147-232200-
EAST CENTRAL FLORIDA

CITY           SKY/WX    TMP DP  RH WIND       PRES   REMARKS
ORMOND BEACH   CLOUDY    66  54  63 SW23G37   29.49R
DAYTONA BEACH  PTSUNNY   66  52  60 W20G28    29.50R
DELAND         CLOUDY    66  52  59 W9G23     29.51R
NEW SMYRNA BEA PTSUNNY   66  52  59 W21G39    29.46S
JFK SPACE CTR  PTSUNNY   71  51  49 W26G33    29.48R
TITUSVILLE     PTSUNNY   70  46  43 W25G37    29.51R
CAPE CANAVERAL MOSUNNY   72  52  49 W24G35    29.48R
PATRICK AFB    MOSUNNY   72  53  51 W25G35    29.50R
MELBOURNE      MOSUNNY   70  52  52 W25G33    29.51R
VERO BEACH     MOSUNNY   72  53  51 W23G38    29.53R
FT PIERCE      MOSUNNY   73  55  53 W23G33    29.54R
STUART         MOSUNNY   77  57  50 NW21G32   29.56R

STATION/POSITION SKY/WX   TEMP    WIND        PRES    WAVE   SWELL
                          AIR SEA DIR/SP/G            HT/PER HT/PER
                          (F)     (DEG/KT/KT) (MB)    (FT/S) (FT/S)
TRIDENT PIER               69 70  270/ 14/ 22   N/A
28.4N   80.5W                 73                N/A     3/14   2/14
27.5N   80.2W                 74                N/A     4/13   2/13

$$
FLZ050-056-061-142-242-148-248-149-249-151-251-155-255-
160-260-232200-
WEST CENTRAL FLORIDA

CITY           SKY/WX    TMP DP  RH WIND       PRES   REMARKS
CRYSTAL RIVER  CLOUDY    64  54  68 W21G29    29.58R
INVERNESS      CLOUDY    66  55  68 W10G18    29.57R
BROOKSVILLE    CLOUDY    67  53  61 W25G35    29.60R
CLEARWATER AIR CLOUDY    68  55  64 NW16G25   29.62R
ST PETE CLEARW PTSUNNY   69  56  62 NW29G37   29.62R
TAMPA INTL     PTSUNNY   69  57  65 W24G30    29.61R
TAMPA EXEC     PTSUNNY   72  54  53 W13G25    29.60R
PLANT CITY     PTSUNNY   70  57  64 W18G30    29.61R
PETER O KNIGHT PTSUNNY   70  59  68 NW14G25   29.61R
ST PETERSBURG  PTSUNNY   68  57  68 NW16G29   29.60R
SARASOTA       MOSUNNY   71  58  63 W22G31    29.61R
VENICE         FAIR      72  61  68 W22G30    29.64R

STATION/POSITION SKY/WX   TEMP    WIND        PRES    WAVE   SWELL
                          AIR SEA DIR/SP/G            HT/PER HT/PER
                          (F)     (DEG/KT/KT) (MB)    (FT/S) (FT/S)
27.3N   84.2W                 76                N/A    16/12  11/12
CLEARWATER BEACH           67 70  290/ 24/ 29 1003.0R
MIDDLE TAMPA BAY           68     320/ 24/ 30 1002.8R
VENICE                     69 70  300/ 25/ 28 1002.7R

$$
FLZ066-069-070-075>078-162-262-165-265-232200-
SOUTHWEST FLORIDA AND KEYS

CITY           SKY/WX    TMP DP  RH WIND       PRES   REMARKS
PUNTA GORDA    MOSUNNY   70  58  65 NW22G35   29.63R
FT MYERS       PTSUNNY   72  58  61 W22G40    29.63R
SOUTHWEST INTL PTSUNNY   72  58  61 NW14G26   29.63R
NAPLES         MOSUNNY   73  59  61 W25G36    29.65S
MARCO ISLAND   MOSUNNY   73  57  56 W16G28    29.66S
MARATHON       CLOUDY    76  62  62 W17G30    29.70R
KEY WEST NAS   MOSUNNY   76  59  55 W28G36    29.71S
KEY WEST INTL  NOT AVBL

STATION/POSITION SKY/WX   TEMP    WIND        PRES    WAVE   SWELL
                          AIR SEA DIR/SP/G            HT/PER HT/PER
                          (F)     (DEG/KT/KT) (MB)    (FT/S) (FT/S)
NAPLES                        72              1004.1R
26.0N   85.6W              70 75  300/ 23/ 29 1007.7R  16/12   8/12
DRY TORTUGAS               73     300/ 29/ 32 1006.3R
SAND KEY                   74     310/ 32/ 37 1006.8R
LONG KEY                   72 74  300/ 26/ 29 1005.0F
MOLASSES REEF              72 74  300/ 29/ 33 1003.7F

$$
FLZ067-068-071>074-168-172>174-232200-
SOUTHEAST FLORIDA

CITY           SKY/WX    TMP DP  RH WIND       PRES   REMARKS
W PALM BEACH   PTSUNNY   71  56  58 W24G30    29.57R
BOCA RATON     MOSUNNY   72  57  60 NW23G36   29.59R
FT LAUDER-EXEC LGT RAIN  74  56  53 W21G29    29.60R
FT LAUDERDALE  PTSUNNY   74  57  55 W23G35    29.59R
POMPANO BEACH  PTSUNNY   75  56  51 W24G33    29.59S
PEMBROKE PINES MOSUNNY   73  57  57 W20G33    29.62R
OPA LOCKA      CLOUDY    73  55  53 W26G35    29.63R
MIAMI          PTSUNNY   74  56  53 W21G31    29.63R
WEST KENDALL   MOSUNNY   77  56  48 W25G35    29.63R
HOMESTEAD      SUNNY     75  57  52 W29G40    29.62R

STATION/POSITION SKY/WX   TEMP    WIND        PRES    WAVE   SWELL
                          AIR SEA DIR/SP/G            HT/PER HT/PER
                          (F)     (DEG/KT/KT) (MB)    (FT/S) (FT/S)
PORT EVERGLADES            73     280/ 18/ 25 1002.2R
VIRGINIA KEY               74 80  290/ 13/ 25 1003.3R
LAKE WORTH                 71 75  270/ 12/ 21 1000.9R
FOWEY ROCKS                72 74  260/ 28/ 29 1003.2R

$$





USA.gov is the U.S. government's official web portal to all federal, state and local government web resources and services.